Satellite-Ground Cal/Val Site Overpasses Predictions

Prediction of Satellite NPP Overpassing Cal/Val Site: Antarctic Dome C

Ground Cal/Val Site Location: Latitude: -75.10, Longitude: 123.35; Satellite-Ground Site NADIR distance within 100 km.

Table of predicted overpasses for the next 14.0 days since TLE Epoch: 7/20/2012
Interval Starting Time Ending Time Minimum Distance Time Minimum Distance (km)
1 07/20/2012 15:05:44 07/20/2012 15:05:54 07/20/2012 15:05:49 93.72
2 07/21/2012 14:46:45 07/21/2012 14:47:14 07/21/2012 14:46:59 17.60
3 07/23/2012 07:29:34 07/23/2012 07:30:03 07/23/2012 07:29:49 1.22
4 07/26/2012 14:53:01 07/26/2012 14:53:30 07/26/2012 14:53:15 19.15
5 07/27/2012 14:34:20 07/27/2012 14:34:33 07/27/2012 14:34:26 87.78
6 07/28/2012 07:35:51 07/28/2012 07:36:18 07/28/2012 07:36:04 36.52
7 07/29/2012 07:17:05 07/29/2012 07:17:25 07/29/2012 07:17:15 73.55
8 07/31/2012 14:59:19 07/31/2012 14:59:43 07/31/2012 14:59:31 56.35
9 08/01/2012 14:40:29 08/01/2012 14:40:53 08/01/2012 14:40:41 52.76
10 08/02/2012 07:42:10 08/02/2012 07:42:30 08/02/2012 07:42
